GW0326 Weather Reports


Display with metric or nautical units.
time (UTC)temp
F
wind
direction
speed
MPH
gust
MPH
rain 1hr
in
rain 24hr
in
rain mn
in
humidity
%
barometer
mb
20260507232046 50 0 0.0 4.0 0.00 0.32 0.29 51 1016.5
20260507231550 50 0 0.0 0.0 0.00 0.32 0.29 61 1016.5
20260507231047 50 0 0.0 0.0 0.00 0.32 0.29 58 1016.6
20260507230547 51 0 0.0 0.0 0.00 0.32 0.29 59 1016.7
20260507230058 51 0 0.0 0.0 0.00 0.32 0.29 57 1016.6
20260507225547 51 0 0.0 0.0 0.00 0.35 0.29 55 1016.6
20260507225047 52 0 0.0 0.0 0.00 0.35 0.29 55 1016.7
20260507224554 52 0 0.0 0.0 0.00 0.35 0.29 55 1016.7
20260507224047 52 0 0.0 0.0 0.00 0.35 0.29 51 1016.6
20260507223550 52 0 0.0 0.0 0.00 0.35 0.29 45 1016.7
20260507223050 53 0 0.0 0.0 0.00 0.35 0.29 47 1016.6
20260507222547 53 0 0.0 0.0 0.00 0.35 0.29 44 1016.7
20260507222046 53 0 0.0 0.0 0.00 0.35 0.29 43 1016.7
20260507221553 53 0 0.0 1.0 0.00 0.35 0.29 45 1016.8
20260507221048 53 0 0.0 1.0 0.00 0.35 0.29 45 1017.0
20260507220546 53 0 0.0 1.0 0.00 0.35 0.29 42 1017.0
20260507220058 53 0 0.0 0.0 0.00 0.35 0.29 42 1017.1
20260507215549 53 0 0.0 0.0 0.00 0.38 0.29 46 1017.1
20260507215047 53 0 0.0 0.0 0.00 0.38 0.29 42 1017.1
20260507214550 53 0 0.0 0.0 0.00 0.38 0.29 41 1017.3
20260507214048 53 0 0.0 0.0 0.00 0.38 0.29 44 1017.3
20260507213548 53 0 0.0 0.0 0.00 0.38 0.29 44 1017.5
20260507213059 53 0 0.0 0.0 0.00 0.38 0.29 42 1017.6
20260507212546 53 0 0.0 0.0 0.00 0.38 0.29 41 1017.6
20260507212047 53 0 0.0 0.0 0.00 0.38 0.29 42 1017.7
20260507211547 52 0 0.0 3.0 0.00 0.38 0.29 41 1017.7
20260507211043 52 0 0.0 4.0 0.00 0.38 0.29 41 1017.7
20260507210547 53 0 0.0 4.0 0.00 0.38 0.29 44 1017.9
20260507210048 53 0 0.0 4.0 0.00 0.38 0.29 42 1017.9
20260507205544 53 0 0.0 4.0 0.00 0.41 0.29 43 1017.9
20260507205047 53 0 0.0 5.0 0.00 0.41 0.29 46 1018.1
20260507204555 53 0 1.0 5.0 0.00 0.41 0.29 42 1018.1
20260507204047 53 0 0.0 3.0 0.00 0.41 0.29 44 1018.1
20260507203544 53 0 0.0 3.0 0.00 0.41 0.29 43 1018.2
20260507203048 53 0 0.0 3.0 0.00 0.41 0.29 42 1018.2
20260507202545 54 0 0.0 4.0 0.00 0.41 0.29 43 1018.3
20260507202045 54 0 0.0 4.0 0.00 0.41 0.29 42 1018.4
20260507201555 54 0 0.0 9.0 0.00 0.41 0.29 41 1018.4
20260507201048 55 0 2.0 9.0 0.00 0.41 0.29 42 1018.4
20260507200548 55 0 1.0 6.0 0.01 0.41 0.29 40 1018.4
20260507200055 55 0 0.0 4.0 0.01 0.41 0.29 40 1018.5
20260507195548 55 0 0.0 5.0 0.01 0.44 0.29 42 1018.4
20260507195048 55 0 0.0 5.0 0.01 0.44 0.29 41 1018.4
20260507194558 54 241 0.0 6.0 0.01 0.44 0.29 42 1018.4
20260507194045 54 0 0.0 8.0 0.02 0.44 0.29 45 1018.4
20260507193548 53 306 1.0 8.0 0.02 0.44 0.29 43 1018.5
20260507193056 54 0 0.0 6.0 0.02 0.44 0.29 41 1018.6
20260507192545 54 0 1.0 5.0 0.03 0.44 0.29 42 1018.6
20260507192046 53 0 0.0 9.0 0.03 0.44 0.29 43 1018.8
20260507191610 53 216 1.0 9.0 0.03 0.44 0.29 42 1018.8
20260507191046 53 235 2.0 10.0 0.03 0.44 0.29 41 1018.7
20260507190545 53 360 1.0 10.0 0.03 0.43 0.28 41 1018.8
20260507190052 53 0 2.0 10.0 0.03 0.43 0.28 43 1018.9
20260507185544 53 298 1.0 7.0 0.04 0.43 0.28 43 1019.0
20260507185048 53 321 1.0 9.0 0.04 0.43 0.28 43 1018.9
20260507184601 53 295 1.0 9.0 0.04 0.43 0.28 44 1019.0
20260507184045 52 0 0.0 12.0 0.04 0.42 0.27 44 1019.1
20260507183544 51 211 2.0 12.0 0.04 0.42 0.27 46 1019.0
20260507183058 50 247 0.0 10.0 0.05 0.42 0.27 48 1019.3
20260507182546 49 0 3.0 10.0 0.04 0.41 0.26 47 1019.1
20260507182046 48 295 4.0 9.0 0.04 0.41 0.26 49 1019.3
20260507181552 48 289 1.0 9.0 0.04 0.41 0.26 50 1019.2
20260507181047 47 280 2.0 9.0 0.05 0.41 0.26 51 1019.3
20260507180547 46 278 0.0 13.0 0.04 0.40 0.25 54 1019.3
20260507180101 46 236 1.0 13.0 0.05 0.40 0.25 53 1019.4
20260507175548 47 266 0.0 4.0 0.04 0.39 0.24 52 1019.4
20260507175048 47 239 0.0 7.0 0.05 0.39 0.24 53 1019.3
20260507174608 47 0 0.0 7.0 0.05 0.39 0.24 53 1019.2
20260507174046 47 0 0.0 9.0 0.05 0.38 0.23 53 1019.2
20260507173546 46 0 1.0 10.0 0.05 0.38 0.23 53 1019.1
20260507173100 46 246 1.0 10.0 0.04 0.37 0.22 56 1019.1
20260507172546 46 0 1.0 10.0 0.04 0.37 0.22 56 1019.1
20260507172047 46 0 1.0 7.0 0.05 0.37 0.22 57 1019.2
20260507171556 46 0 0.0 2.0 0.05 0.37 0.22 56 1019.2
20260507171046 46 0 0.0 7.0 0.04 0.36 0.21 55 1019.2
20260507170546 46 0 0.0 7.0 0.05 0.36 0.21 57 1019.2
20260507170052 46 281 0.0 7.0 0.04 0.35 0.20 56 1019.2
20260507165545 45 0 1.0 7.0 0.04 0.35 0.20 56 1019.3
20260507165045 45 0 0.0 6.0 0.04 0.34 0.19 60 1019.2
20260507164638 44 0 0.0 1.0 0.04 0.34 0.19 60 1019.4
20260507164048 43 0 0.0 0.0 0.04 0.33 0.18 61 1019.4
20260507163547 43 0 0.0 0.0 0.04 0.33 0.18 61 1019.4
20260507163054 43 0 0.0 0.0 0.04 0.33 0.18 63 1019.4
20260507162547 43 0 0.0 0.0 0.05 0.33 0.18 62 1019.6
20260507162045 43 0 0.0 0.0 0.04 0.32 0.17 64 1019.6
20260507161606 44 0 0.0 0.0 0.05 0.32 0.17 61 1019.8
20260507161046 44 0 0.0 2.0 0.05 0.32 0.17 58 1019.9
20260507160556 44 0 0.0 8.0 0.04 0.31 0.16 55 1020.2
20260507160052 44 0 0.0 8.0 0.04 0.31 0.16 58 1020.4
20260507155545 43 360 0.0 13.0 0.04 0.31 0.16 55 1020.4
20260507155048 43 248 2.0 16.0 0.04 0.30 0.15 56 1020.3
20260507154554 43 223 3.0 16.0 0.05 0.30 0.15 58 1020.1
20260507154047 43 0 2.0 15.0 0.04 0.29 0.14 57 1020.0
20260507153547 43 207 4.0 15.0 0.05 0.29 0.14 57 1019.6
20260507153050 43 0 3.0 16.0 0.06 0.29 0.14 57 1019.6
20260507152545 43 278 4.0 16.0 0.05 0.28 0.13 58 1019.7
20260507152048 43 277 4.0 16.0 0.06 0.28 0.13 58 1019.4
20260507151552 43 157 1.0 12.0 0.05 0.27 0.12 59 1019.4
20260507151045 43 296 3.0 11.0 0.06 0.27 0.12 59 1019.5
20260507150545 43 269 1.0 12.0 0.07 0.27 0.12 60 1019.6
20260507150054 43 0 1.0 14.0 0.08 0.27 0.12 59 1019.7
20260507145548 43 230 2.0 14.0 0.08 0.27 0.12 58 1019.7
20260507145050 44 216 2.0 14.0 0.08 0.26 0.11 59 1019.7
20260507144552 44 209 3.0 14.0 0.08 0.25 0.10 58 1019.8
20260507144050 44 236 3.0 14.0 0.08 0.24 0.09 60 1019.7
20260507143546 43 290 2.0 14.0 0.08 0.24 0.09 60 1019.5
20260507143107 43 0 3.0 12.0 0.07 0.23 0.08 59 1019.7
20260507142547 43 215 2.0 15.0 0.07 0.23 0.08 60 1019.6
20260507142047 43 0 5.0 15.0 0.06 0.22 0.07 57 1019.5
20260507141616 43 225 4.0 12.0 0.06 0.21 0.06 59 1019.7
20260507141051 43 238 4.0 16.0 0.06 0.21 0.06 59 1019.7
20260507140547 43 204 2.0 16.0 0.05 0.20 0.05 61 1019.6
20260507140053 43 225 3.0 11.0 0.04 0.19 0.04 60 1019.8
20260507135549 43 287 3.0 13.0 0.03 0.18 0.03 59 1019.6
20260507135047 43 225 3.0 17.0 0.03 0.18 0.03 59 1019.5
20260507134551 43 236 3.0 17.0 0.02 0.17 0.02 59 1019.4
20260507134045 43 232 3.0 12.0 0.01 0.16 0.01 61 1019.4
20260507133547 42 248 2.0 12.0 0.01 0.16 0.01 60 1019.4
20260507133051 42 227 3.0 15.0 0.01 0.16 0.01 61 1019.5
20260507132547 41 208 3.0 15.0 0.01 0.16 0.01 62 1019.5
20260507132049 40 242 5.0 15.0 0.01 0.16 0.01 61 1019.5
20260507131602 40 281 2.0 13.0 0.00 0.15 0.00 63 1019.5
20260507131047 39 300 3.0 13.0 0.00 0.15 0.00 63 1019.4
20260507130550 39 288 3.0 12.0 0.00 0.15 0.00 64 1019.4
20260507130051 38 236 2.0 15.0 0.00 0.15 0.00 65 1019.4
20260507125547 38 272 5.0 15.0 0.00 0.15 0.00 64 1019.3
20260507125049 38 234 4.0 17.0 0.00 0.15 0.00 65 1019.2
20260507124556 38 234 4.0 17.0 0.00 0.15 0.00 64 1019.1
20260507124048 37 270 4.0 14.0 0.00 0.15 0.00 65 1019.1
20260507123547 37 360 5.0 14.0 0.00 0.15 0.00 66 1019.1
20260507123108 37 279 3.0 13.0 0.00 0.15 0.00 66 1019.1
20260507122547 37 294 3.0 13.0 0.00 0.15 0.00 67 1019.0
20260507122049 36 263 1.0 11.0 0.00 0.15 0.00 68 1018.9
20260507121555 36 236 2.0 17.0 0.00 0.15 0.00 67 1018.8
20260507121046 36 298 4.0 17.0 0.00 0.15 0.00 67 1018.8
20260507120545 36 0 4.0 12.0 0.00 0.15 0.00 68 1018.6
20260507120052 36 360 3.0 12.0 0.00 0.15 0.00 68 1018.6
20260507115547 36 261 4.0 14.0 0.00 0.15 0.00 68 1018.6
20260507115046 36 360 3.0 14.0 0.00 0.15 0.00 68 1018.7
20260507114557 35 294 4.0 11.0 0.00 0.15 0.00 69 1018.8
20260507114049 35 267 3.0 13.0 0.00 0.15 0.00 69 1019.0
20260507113547 35 360 3.0 13.0 0.00 0.15 0.00 70 1018.8
20260507113052 35 360 2.0 9.0 0.00 0.15 0.00 71 1018.9
20260507112548 36 267 1.0 9.0 0.00 0.15 0.00 68 1019.3
20260507112047 36 0 1.0 9.0 0.00 0.15 0.00 66 1019.2
20260507111552 37 0 1.0 14.0 0.00 0.15 0.00 65 1018.9
20260507111048 37 226 2.0 14.0 0.00 0.15 0.00 65 1018.9
20260507110548 37 256 2.0 14.0 0.00 0.15 0.00 64 1018.9
20260507110057 37 360 3.0 14.0 0.00 0.15 0.00 64 1018.9
20260507105546 37 248 2.0 14.0 0.00 0.15 0.00 64 1018.8
20260507105047 37 0 2.0 14.0 0.00 0.15 0.00 64 1018.7
20260507104559 37 360 4.0 13.0 0.00 0.15 0.00 63 1018.7
20260507104047 37 0 1.0 14.0 0.00 0.15 0.00 64 1018.8
20260507103549 37 360 3.0 14.0 0.00 0.15 0.00 64 1018.9
20260507103053 37 263 5.0 14.0 0.00 0.15 0.00 65 1018.8
20260507102548 36 225 2.0 11.0 0.00 0.15 0.00 66 1018.8
20260507102050 36 0 1.0 11.0 0.00 0.15 0.00 67 1018.9
20260507101551 36 266 1.0 10.0 0.00 0.15 0.00 66 1018.9
20260507101048 36 288 3.0 10.0 0.00 0.15 0.00 66 1018.9
20260507100545 36 0 0.0 10.0 0.00 0.15 0.00 68 1018.9
20260507100059 37 327 2.0 10.0 0.00 0.15 0.00 65 1018.8
20260507095548 36 281 2.0 14.0 0.00 0.15 0.00 66 1018.7
20260507095047 36 0 3.0 14.0 0.00 0.15 0.00 67 1018.6
20260507094553 36 288 0.0 12.0 0.00 0.15 0.00 68 1018.8
20260507094046 35 246 1.0 12.0 0.00 0.15 0.00 67 1018.7
20260507093547 35 238 3.0 10.0 0.00 0.15 0.00 67 1018.7
20260507093052 35 0 0.0 9.0 0.00 0.15 0.00 69 1018.9
20260507092547 35 269 1.0 9.0 0.00 0.15 0.00 68 1019.0
20260507092047 35 293 2.0 9.0 0.00 0.15 0.00 68 1018.8
20260507091551 35 360 1.0 11.0 0.00 0.15 0.00 67 1019.0
20260507091047 35 248 2.0 13.0 0.00 0.15 0.00 67 1018.9
20260507090546 35 296 2.0 13.0 0.00 0.15 0.00 66 1018.9
20260507090059 35 248 3.0 15.0 0.00 0.15 0.00 65 1018.9
20260507085547 35 283 3.0 15.0 0.00 0.15 0.00 66 1018.9
20260507085047 35 0 2.0 14.0 0.00 0.15 0.00 66 1018.9
20260507084555 35 226 3.0 13.0 0.00 0.15 0.00 66 1018.7
20260507084047 34 216 2.0 13.0 0.00 0.15 0.00 67 1018.7
20260507083551 34 327 3.0 12.0 0.00 0.15 0.00 68 1018.8
20260507083050 34 300 3.0 10.0 0.00 0.15 0.00 68 1018.7
20260507082548 34 360 3.0 13.0 0.00 0.15 0.00 69 1018.7
20260507082047 34 278 3.0 13.0 0.00 0.15 0.00 68 1018.7
20260507081556 34 281 4.0 13.0 0.00 0.15 0.00 68 1018.6
20260507081050 34 283 2.0 9.0 0.00 0.15 0.00 68 1018.7
20260507080547 34 360 3.0 16.0 0.00 0.15 0.00 69 1018.6
20260507080120 34 275 3.0 16.0 0.00 0.15 0.00 69 1018.6
20260507075547 33 275 5.0 19.0 0.00 0.15 0.00 69 1018.9
20260507075048 33 229 4.0 19.0 0.00 0.15 0.00 69 1018.8
20260507074557 33 188 3.0 11.0 0.00 0.15 0.00 70 1018.7
20260507074047 32 230 3.0 10.0 0.00 0.15 0.00 70 1019.1
20260507073551 32 283 1.0 10.0 0.00 0.15 0.00 71 1019.3
20260507073053 32 248 0.0 14.0 0.00 0.15 0.00 71 1019.5
20260507072547 33 0 1.0 14.0 0.00 0.15 0.00 69 1019.5
20260507072047 33 277 2.0 12.0 0.00 0.15 0.00 68 1019.4
20260507071553 33 302 2.0 13.0 0.00 0.15 0.00 68 1019.5
20260507071048 32 277 0.0 13.0 0.00 0.15 0.00 70 1019.5
20260507070548 32 0 2.0 9.0 0.00 0.15 0.00 69 1019.5
20260507065549 33 0 2.0 9.0 0.00 0.15 0.00 69 1019.5
20260507065047 33 351 2.0 14.0 0.00 0.15 0.00 69 1019.5
20260507064626 33 0 2.0 14.0 0.00 0.15 0.00 70 1019.4
20260507064049 33 252 1.0 13.0 0.00 0.15 0.00 70 1019.3
20260507063547 33 304 1.0 14.0 0.00 0.15 0.00 69 1019.4
20260507063053 33 360 4.0 15.0 0.00 0.15 0.00 70 1019.4
20260507062547 33 360 5.0 17.0 0.00 0.15 0.00 70 1019.1
20260507062047 33 286 7.0 17.0 0.00 0.15 0.00 71 1019.1
20260507061552 33 238 3.0 14.0 0.00 0.15 0.00 72 1019.0
20260507061048 33 360 4.0 12.0 0.00 0.15 0.00 71 1018.9
20260507060546 33 0 3.0 14.0 0.00 0.15 0.00 73 1018.9
20260507060110 33 310 4.0 14.0 0.00 0.15 0.00 72 1018.9
20260507055547 32 233 4.0 13.0 0.00 0.15 0.15 73 1018.8
20260507055047 32 360 2.0 13.0 0.00 0.15 0.15 74 1018.9
20260507054552 32 296 3.0 10.0 0.00 0.15 0.15 74 1018.9
20260507054045 32 192 1.0 11.0 0.00 0.15 0.15 75 1018.8
20260507053546 32 220 3.0 13.0 0.00 0.15 0.15 74 1018.8
20260507053058 32 319 3.0 17.0 0.00 0.15 0.15 73 1018.8
20260507052544 32 266 4.0 17.0 0.00 0.15 0.15 74 1018.8
20260507052044 32 227 2.0 14.0 0.00 0.15 0.15 75 1018.8
20260507051605 32 188 2.0 16.0 0.00 0.15 0.15 75 1018.9
20260507051045 32 293 2.0 16.0 0.00 0.15 0.15 75 1018.9
20260507050548 32 293 2.0 12.0 0.00 0.15 0.15 76 1019.0
20260507050053 32 271 3.0 12.0 0.00 0.15 0.15 75 1019.1
20260507045548 32 0 1.0 10.0 0.00 0.15 0.15 75 1019.2
20260507045048 32 0 2.0 13.0 0.00 0.15 0.15 76 1019.1
20260507044556 32 0 2.0 13.0 0.00 0.15 0.15 76 1019.2
20260507044050 32 0 0.0 11.0 0.00 0.15 0.15 76 1019.1
20260507043545 32 219 3.0 15.0 0.00 0.15 0.15 75 1019.1
20260507043055 32 236 3.0 15.0 0.00 0.15 0.15 74 1019.0
20260507042545 32 258 3.0 16.0 0.00 0.15 0.15 75 1019.0
20260507042044 32 231 2.0 16.0 0.00 0.15 0.15 77 1019.1
20260507041552 32 210 4.0 16.0 0.00 0.15 0.15 77 1019.0
20260507041044 32 236 3.0 15.0 0.00 0.15 0.15 77 1018.9
20260507040545 32 0 5.0 15.0 0.00 0.15 0.15 77 1019.1
20260507040053 32 241 2.0 14.0 0.00 0.15 0.15 78 1019.2
20260507035548 32 0 3.0 12.0 0.00 0.15 0.15 78 1019.1
20260507035045 31 0 1.0 10.0 0.00 0.15 0.15 79 1019.2
20260507034551 31 0 1.0 6.0 0.00 0.15 0.15 81 1019.1
20260507034047 31 219 1.0 21.0 0.00 0.15 0.15 81 1018.9
20260507033612 31 240 0.0 21.0 0.00 0.15 0.15 83 1018.9
20260507033046 31 242 0.0 5.0 0.00 0.15 0.15 84 1018.9
20260507032548 31 0 0.0 12.0 0.00 0.15 0.15 85 1018.8
20260507032044 31 0 0.0 12.0 0.00 0.15 0.15 84 1018.9
20260507031549 31 0 0.0 11.0 0.00 0.15 0.15 84 1018.9
20260507031045 31 0 2.0 11.0 0.00 0.15 0.15 85 1018.9
20260507030545 30 0 1.0 11.0 0.00 0.15 0.15 87 1018.6
20260507030048 30 0 0.0 3.0 0.00 0.15 0.15 89 1018.6
20260507025544 30 286 0.0 1.0 0.00 0.15 0.15 90 1018.5
20260507025044 30 0 0.0 1.0 0.00 0.15 0.15 89 1018.5
20260507024550 30 0 0.0 0.0 0.00 0.15 0.15 90 1018.5
20260507024045 30 0 0.0 0.0 0.00 0.15 0.15 90 1018.4
20260507023544 31 0 0.0 0.0 0.00 0.15 0.15 89 1018.4
20260507023053 31 0 0.0 1.0 0.00 0.15 0.15 89 1018.3
20260507022545 31 0 0.0 1.0 0.00 0.15 0.15 89 1018.3
20260507022045 31 0 0.0 8.0 0.00 0.15 0.15 89 1018.2
20260507021553 31 0 0.0 8.0 0.00 0.15 0.15 88 1018.1
20260507021045 31 0 0.0 8.0 0.00 0.15 0.15 89 1018.0
20260507020545 31 0 1.0 5.0 0.00 0.15 0.15 90 1017.9
20260507020103 31 0 1.0 5.0 0.00 0.15 0.15 92 1017.8
20260507015547 31 0 0.0 3.0 0.00 0.15 0.15 93 1017.8
20260507015045 31 0 0.0 3.0 0.00 0.15 0.15 93 1017.8
20260507014557 31 0 0.0 0.0 0.00 0.15 0.15 93 1017.6
20260507014045 31 0 0.0 0.0 0.00 0.15 0.15 93 1017.8
20260507013548 31 0 0.0 0.0 0.00 0.15 0.15 93 1017.7
20260507013053 32 0 0.0 0.0 0.00 0.15 0.15 93 1017.8
20260507012544 32 0 0.0 0.0 0.00 0.15 0.15 93 1017.8
20260507012044 32 0 0.0 0.0 0.00 0.15 0.15 93 1017.9
20260507011554 32 0 0.0 0.0 0.01 0.15 0.15 93 1017.8
20260507011045 32 0 0.0 0.0 0.01 0.15 0.15 92 1017.9
20260507010548 32 0 0.0 0.0 0.01 0.15 0.15 92 1017.9
20260507010106 32 0 0.0 0.0 0.01 0.15 0.15 92 1017.9
20260507005548 32 0 0.0 0.0 0.01 0.15 0.15 92 1018.0
20260507005045 32 0 0.0 0.0 0.01 0.15 0.15 92 1018.0
20260507004556 32 0 0.0 0.0 0.01 0.15 0.15 92 1017.9
20260507004045 32 0 0.0 0.0 0.02 0.15 0.15 92 1018.0
20260507003545 32 0 0.0 0.0 0.02 0.15 0.15 92 1018.0
20260507003055 32 0 0.0 0.0 0.02 0.15 0.15 92 1018.0
20260507002544 32 0 0.0 0.0 0.02 0.15 0.15 92 1018.0
20260507002045 32 0 0.0 0.0 0.02 0.15 0.15 92 1018.1
20260507001556 32 0 0.0 0.0 0.01 0.14 0.14 92 1018.2
20260507001044 32 0 0.0 0.0 0.01 0.14 0.14 92 1018.1
20260507000549 32 0 0.0 0.0 0.02 0.14 0.14 91 1018.2
20260507000053 32 0 0.0 0.0 0.02 0.14 0.14 91 1018.2
20260506235544 32 0 0.0 0.0 0.02 0.14 0.14 92 1018.3
20260506235048 32 0 0.0 0.0 0.02 0.14 0.14 92 1018.3
20260506234558 32 0 0.0 0.0 0.03 0.14 0.14 91 1018.2
20260506234048 32 0 0.0 3.0 0.02 0.13 0.13 91 1018.2
20260506233549 32 0 0.0 3.0 0.02 0.13 0.13 90 1018.2
20260506233057 32 64 0.0 0.0 0.02 0.13 0.13 91 1018.2
20260506232547 32 0 0.0 4.0 0.03 0.13 0.13 90 1018.1